STARLINK-4204, 52854

Orbit data source: Space-Track

STARLINK-4204, 52854 is a payload satellite owned by SpaceX/Seattle (US) in LEO that was launched on Fri, 17 Jun 2022 UTC via an FALCON 9 launch vehicle from the Air Force Eastern Test Range (AFETR). Payload-class satellites include a variety of spacecraft equipped with specific instruments for various scientific and technological missions. These include communications satellites like Starlink; space stations such as the ISS; scientific satellites like the Hubble; Earth observation satellites from companies like Planet Labs, Umbra, and HawkEye 360; GPS; miniature CubeSats for education and research; and military/defense satellites.

Loading next visibility...
Identifier
52854, 2022-062AA
Orbit
LEO
Country
Flag of USUS
Related business
Manufacturer
SpaceX/Seattle
Mission
Operational Commercial Communications
Bus & Motor
STARLINK, Unknown motor
Mass
297 kg wet, ~275 kg dry
Launch date (UTC)
2022-06-17 (4 years ago)
Launch vehicle
FALCON 9
Launch site
Air Force Eastern Test Range (AFETR)
Object type
Payload
Rocket body
Debris
Shape & HBR
Box + 1 Pan, 10.1 m
Radar Cross Section
13.562 m², Large (>1 m²)

Expand to show TLE details & history
Last TLE update: 3 days ago

TLE from 3 days ago
0 STARLINK-4204
1 52854U 22062AA  26170.64297799  .00000178  00000-0  29245-4 0  9997
2 52854  53.1600 286.3205 0001088  88.5045 271.6071 15.08833472221318
Epoch: 2026-06-19T15:25Z
TLE epoch observation values (Epoch: 2026-06-19T15:25:53.298Z)
Latitude
-0.00002°
Longitude
146.9794°
Altitude
540.634 km
Speed
7.593 km/s
True Right ascension
19h 05m 16s
True Declination
0° 00' 00"
Sunlit
Object was in full shadow at epoch
Visualization orbit readout
Latitude
Unknown
Longitude
Unknown
Altitude
Unknown
Speed
Unknown
Apparent Right ascension
Unknown
Apparent Declination
Unknown
Sunlit
N/A
Visualization observer readout
Local Sidereal Time
21:36:49
Azimuth
Unknown
Elevation
Unknown
Doppler factor
Unknown
Orbital elements
Apogee altitude
540.77 km
Perigee altitude
539.265 km
Semi-major axis
6,918.154 km
Eccentricity
0.00011
Inclination
53.16°
RAAN
286.3205°
Arg. of periapsis
88.5045°
True anomaly
271.59464°
Mean anomaly
271.6071°
Eccentric anomaly
271.60087°
Mean motion
3.77188 °/min
Orbital period
95.44 mins
BSTAR
0.000029245
Loading maneuver chart data...
Computing Atmospheric mass density...
Loading historical data...
Loading historical data...
Loading historical data...
Loading historical data...
Loading historical data...
Loading historical data...
Loading historical data...

Documentation

Showing up to 5 results
|